Showing default

ATS 1, 2608

Orbit data source: Space-Track

ATS 1, 2608 is a payload satellite owned by GSFC (US) in GEO that was launched on Wed, 07 Dec 1966 UTC via an ATLAS SLV-3 AGENA D launch vehicle from the Air Force Eastern Test Range (AFETR). Payload-class satellites include a variety of spacecraft equipped with specific instruments for various scientific and technological missions. These include communications satellites like Starlink; space stations such as the ISS; scientific satellites like the Hubble; Earth observation satellites from companies like Planet Labs, Umbra, and HawkEye 360; GPS; miniature CubeSats for education and research; and military/defense satellites.

Not visible in the next 10 days
Identifier
2608, 1966-110A
Orbit
GEO
Country
Flag of USUS
Related business
Manufacturer
Hughes
Mission
Non-operational spacecraft
Bus & Motor
HS-306, SR-28-3
Mass
714 kg wet, 266 kg dry
Launch date (UTC)
1966-12-07 (59 years ago)
Launch vehicle
ATLAS SLV-3 AGENA D
Launch site
Air Force Eastern Test Range (AFETR)
Object type
Payload
Rocket body
Debris
Shape & HBR
Unknown
Radar Cross Section
Large (>1 m²)

Expand to show TLE details & history
Last TLE update: 20 hours ago

TLE from 20 hours ago
0 ATS 1
1 02608U 66110A   26140.62685056 -.00000220  00000-0  00000-0 0  9996
2 02608   4.9054  70.1709 0006008 191.1887 350.3551  1.00306289134529
Epoch: 2026-05-20T15:02Z
TLE epoch observation values (Epoch: 2026-05-20T15:02:39.888Z)
Latitude
-0.15155°
Longitude
147.75691°
Altitude
35,751.371 km
Speed
3.077 km/s
True Right ascension
16h 46m 49s
True Declination
0° 09' 05"
Sunlit
Object was in daylight at epoch
Visualization orbit readout
Latitude
Unknown
Longitude
Unknown
Altitude
Unknown
Speed
Unknown
Apparent Right ascension
Unknown
Apparent Declination
Unknown
Sunlit
N/A
Visualization observer readout
Local Sidereal Time
19:59:36
Azimuth
Unknown
Elevation
Unknown
Doppler factor
Unknown
Orbital elements
Apogee altitude
35,803.312 km
Perigee altitude
35,752.657 km
Semi-major axis
42,156.121 km
Eccentricity
0.0006
Inclination
4.9054°
RAAN
70.1709°
Arg. of periapsis
191.1887°
True anomaly
350.34356°
Mean anomaly
350.3551°
Eccentric anomaly
350.34933°
Mean motion
0.25076 °/min
Orbital period
1,435.66 mins
BSTAR
0
Loading maneuver chart data...
Computing Atmospheric mass density...
Loading historical data...
Loading historical data...
Loading historical data...
Loading historical data...
Loading historical data...
Loading historical data...
Loading historical data...
Other satellites on launch #110 in the year 1966 (1966-12-07 UTC)

Documentation

Showing up to 5 results
|